FW0177 Weather Reports


Display with metric or nautical units.
time (UTC)temp
F
wind
direction
speed
MPH
gust
MPH
rain 1hr
in
rain 24hr
in
rain mn
in
humidity
%
barometer
mb
20190420010724 51 279 5.0 9.0 0.00 0.00 0.00 80 1008.6
20190420010216 51 236 4.0 9.0 0.00 0.00 0.00 80 1008.5
20190420005728 51 305 5.0 11.0 0.00 0.00 0.00 80 1008.5
20190420005220 51 305 4.0 11.0 0.00 0.00 0.00 79 1008.4
20190420004715 51 304 5.0 11.0 0.00 0.00 0.00 79 1008.2
20190420004226 52 302 4.0 11.0 0.00 0.00 0.00 78 1008.1
20190420003717 52 286 6.0 14.0 0.00 0.00 0.00 77 1007.9
20190420003229 52 288 4.0 13.0 0.00 0.00 0.00 78 1007.9
20190420002720 52 246 8.0 13.0 0.00 0.00 0.00 77 1007.8
20190420002212 52 267 8.0 13.0 0.00 0.00 0.00 77 1007.8
20190420001724 52 304 5.0 13.0 0.00 0.00 0.00 78 1007.8
20190420001216 52 350 6.0 14.0 0.00 0.00 0.00 78 1007.8
20190420000711 52 257 7.0 14.0 0.00 0.00 0.00 78 1007.8
20190420000223 53 301 8.0 16.0 0.00 0.00 0.00 78 1007.8
20190419235714 53 282 7.0 17.0 0.00 0.00 0.00 77 1007.8
20190419235225 53 292 10.0 17.0 0.00 0.00 0.00 76 1007.7
20190419234717 53 288 10.0 17.0 0.00 0.00 0.00 76 1007.5
20190419234229 54 311 11.0 16.0 0.00 0.00 0.00 75 1007.5
20190419233720 54 279 6.0 15.0 0.00 0.00 0.00 75 1007.2
20190419233211 55 310 6.0 14.0 0.00 0.00 0.00 75 1007.3
20190419232726 54 290 5.0 16.0 0.00 0.00 0.00 75 1007.2
20190419232217 54 293 4.0 16.0 0.00 0.00 0.00 77 1007.2
20190419231729 54 301 6.0 12.0 0.00 0.00 0.00 76 1007.1
20190419231221 54 300 4.0 13.0 0.00 0.00 0.00 76 1007.1
20190419230712 54 317 5.0 11.0 0.00 0.00 0.00 75 1007.1
20190419230225 54 260 7.0 13.0 0.00 0.00 0.00 74 1007.0
20190419225715 55 311 6.0 14.0 0.00 0.00 0.00 74 1007.1
20190419225227 55 314 5.0 15.0 0.00 0.00 0.00 74 1007.1
20190419224722 55 292 8.0 15.0 0.00 0.00 0.00 73 1007.1
20190419224214 55 304 5.0 16.0 0.00 0.00 0.00 73 1007.0
20190419223724 55 273 9.0 16.0 0.00 0.00 0.00 71 1007.0
20190419223217 55 277 5.0 16.0 0.00 0.00 0.00 73 1006.9
20190419222728 55 323 8.0 16.0 0.00 0.00 0.00 72 1006.7
20190419222219 56 286 11.0 18.0 0.00 0.00 0.00 71 1006.7
20190419221731 56 280 8.0 19.0 0.00 0.00 0.00 71 1006.6
20190419221222 56 316 8.0 17.0 0.00 0.00 0.00 72 1006.6
20190419220718 56 300 9.0 17.0 0.00 0.00 0.00 71 1006.5
20190419220229 56 278 7.0 16.0 0.00 0.00 0.00 72 1006.4
20190419215720 56 315 12.0 19.0 0.00 0.00 0.00 72 1006.4
20190419215212 56 287 12.0 18.0 0.00 0.00 0.00 73 1006.2
20190419214724 55 294 8.0 16.0 0.00 0.00 0.00 75 1006.1
20190419214215 56 348 8.0 18.0 0.00 0.00 0.00 74 1006.1
20190419213727 56 297 8.0 18.0 0.00 0.00 0.00 76 1006.1
20190419213219 57 339 7.0 15.0 0.00 0.00 0.00 75 1006.0
20190419212714 56 5 7.0 16.0 0.00 0.00 0.00 76 1006.0
20190419212227 56 277 10.0 16.0 0.00 0.00 0.00 75 1006.0
20190419211718 56 282 10.0 20.0 0.00 0.00 0.00 74 1006.0
20190419211230 57 313 10.0 20.0 0.00 0.00 0.00 73 1005.9
20190419210722 57 293 10.0 18.0 0.00 0.00 0.00 75 1005.9
20190419210214 56 327 9.0 19.0 0.00 0.00 0.00 77 1005.9
20190419205724 55 309 7.0 19.0 0.00 0.00 0.00 79 1005.9
20190419205217 54 332 8.0 18.0 0.00 0.00 0.00 79 1005.9
20190419204712 54 309 7.0 18.0 0.00 0.00 0.00 80 1005.9
20190419204224 53 276 3.0 18.0 0.00 0.00 0.00 83 1005.8
20190419203715 53 286 10.0 18.0 0.00 0.00 0.00 81 1005.9
20190419203226 53 304 6.0 14.0 0.00 0.00 0.00 82 1005.9
20190419202716 53 254 6.0 15.0 0.00 0.00 0.00 84 1005.9
20190419202228 53 289 6.0 13.0 0.00 0.00 0.00 84 1006.0
20190419201721 52 308 7.0 18.0 0.00 0.00 0.00 84 1006.0
20190419201228 53 288 10.0 18.0 0.00 0.00 0.00 85 1006.0
20190419200719 52 336 8.0 15.0 0.00 0.00 0.00 87 1006.1
20190419200215 52 327 10.0 24.0 0.00 0.00 0.00 87 1006.2
20190419195726 52 291 12.0 24.0 0.00 0.00 0.00 87 1006.2
20190419195218 53 294 10.0 25.0 0.00 0.00 0.00 86 1006.2
20190419194728 54 292 13.0 25.0 0.00 0.00 0.00 82 1006.3
20190419194219 55 330 9.0 20.0 0.00 0.00 0.00 78 1005.8
20190419193731 55 302 11.0 20.0 0.00 0.00 0.00 77 1005.9
20190419193222 55 290 4.0 13.0 0.00 0.00 0.00 80 1005.8
20190419192715 55 305 8.0 15.0 0.00 0.00 0.00 79 1006.0
20190419192230 55 299 8.0 17.0 0.00 0.00 0.00 78 1005.9
20190419191721 55 281 11.0 19.0 0.00 0.00 0.00 77 1005.8
20190419191212 56 258 11.0 18.0 0.00 0.00 0.00 76 1005.9
20190419190724 56 319 5.0 22.0 0.00 0.00 0.00 78 1005.8
20190419190215 56 10 12.0 22.0 0.00 0.00 0.00 75 1005.8
20190419185726 56 290 7.0 16.0 0.00 0.00 0.00 77 1005.8
20190419185218 56 240 8.0 17.0 0.00 0.00 0.00 80 1005.7
20190419184730 55 285 8.0 19.0 0.00 0.00 0.00 81 1005.7
20190419184225 55 286 10.0 19.0 0.00 0.00 0.00 82 1005.8
20190419183716 55 289 6.0 21.0 0.00 0.00 0.00 82 1005.8
20190419183228 55 325 12.0 21.0 0.00 0.00 0.00 80 1005.7
20190419182719 55 306 10.0 21.0 0.00 0.00 0.00 84 1005.8
20190419182231 55 327 13.0 27.0 0.00 0.00 0.00 82 1005.8
20190419181722 56 344 12.0 27.0 0.00 0.00 0.00 81 1005.6
20190419181213 56 320 4.0 15.0 0.00 0.00 0.00 82 1005.4
20190419180724 56 294 8.0 18.0 0.00 0.00 0.00 80 1005.5
20190419180219 56 296 7.0 18.0 0.00 0.00 0.00 80 1005.4
20190419175731 56 296 10.0 18.0 0.00 0.00 0.00 78 1005.4
20190419175222 56 320 10.0 18.0 0.00 0.00 0.00 79 1005.3
20190419174714 56 299 9.0 23.0 0.00 0.00 0.00 80 1005.3
20190419174226 56 305 7.0 23.0 0.00 0.00 0.00 81 1005.5
20190419173717 56 336 10.0 19.0 0.00 0.00 0.00 79 1005.5
20190419173228 56 338 8.0 15.0 0.00 0.00 0.00 80 1005.3
20190419172720 56 265 7.0 19.0 0.00 0.00 0.00 82 1005.2
20190419172215 56 314 11.0 19.0 0.00 0.00 0.00 80 1005.2
20190419171726 56 327 10.0 15.0 0.00 0.00 0.00 83 1005.2
20190419171219 55 246 8.0 15.0 0.00 0.00 0.00 86 1005.2
20190419170729 55 309 8.0 15.0 0.00 0.00 0.00 86 1005.3
20190419170221 54 360 7.0 19.0 0.00 0.00 0.00 86 1005.3
20190419165712 54 19 6.0 19.0 0.00 0.00 0.00 86 1005.2
20190419165223 54 267 11.0 17.0 0.00 0.00 0.00 86 1005.2
20190419164715 54 262 8.0 17.0 0.00 0.00 0.00 89 1005.1
20190419164226 54 290 10.0 15.0 0.00 0.00 0.00 93 1005.2
20190419163722 54 295 9.0 18.0 0.00 0.00 0.00 92 1005.3
20190419163214 54 288 11.0 18.0 0.00 0.00 0.00 89 1005.3
20190419162725 55 334 4.0 13.0 0.00 0.00 0.00 88 1005.2
20190419162217 55 303 7.0 14.0 0.00 0.00 0.00 85 1005.0
20190419161728 55 282 7.0 15.0 0.00 0.00 0.00 85 1005.0
20190419161220 55 271 8.0 15.0 0.00 0.00 0.00 86 1005.0
20190419160731 55 355 3.0 15.0 0.00 0.00 0.00 88 1004.9
20190419160222 55 288 6.0 11.0 0.00 0.00 0.00 88 1005.0
20190419155713 54 248 4.0 12.0 0.00 0.00 0.00 88 1004.9
20190419155223 54 259 4.0 15.0 0.00 0.00 0.00 88 1005.0
20190419154714 54 322 7.0 15.0 0.00 0.00 0.00 87 1005.0
20190419154226 54 319 5.0 17.0 0.00 0.00 0.00 88 1004.9
20190419153717 54 288 8.0 17.0 0.00 0.00 0.00 88 1005.0
20190419153229 54 296 6.0 21.0 0.00 0.00 0.00 88 1004.8
20190419152720 54 318 12.0 22.0 0.00 0.00 0.00 88 1004.8
20190419152211 53 294 9.0 22.0 0.00 0.00 0.00 90 1004.7
20190419151727 53 303 7.0 17.0 0.00 0.00 0.00 91 1004.8
20190419151219 52 297 9.0 17.0 0.00 0.00 0.00 91 1004.7
20190419150730 52 314 7.0 20.0 0.00 0.00 0.00 92 1004.6
20190419150221 52 51 9.0 20.0 0.00 0.00 0.00 92 1004.6
20190419145713 52 290 8.0 20.0 0.00 0.00 0.00 93 1004.5
20190419145225 52 306 8.0 20.0 0.00 0.00 0.00 93 1004.4
20190419144717 52 263 9.0 20.0 0.00 0.00 0.00 94 1004.4
20190419144229 52 292 7.0 14.0 0.00 0.00 0.00 94 1004.4
20190419143723 52 248 6.0 15.0 0.00 0.00 0.00 95 1004.2
20190419143214 52 306 6.0 17.0 0.00 0.00 0.00 95 1004.1
20190419142725 52 330 8.0 17.0 0.00 0.00 0.00 95 1004.1
20190419142218 51 325 5.0 13.0 0.00 0.00 0.00 96 1004.0
20190419141729 51 329 7.0 17.0 0.00 0.00 0.00 95 1004.0
20190419141221 51 272 9.0 17.0 0.00 0.00 0.00 95 1004.0
20190419140712 52 323 7.0 17.0 0.00 0.00 0.00 96 1003.9
20190419140223 52 286 9.0 16.0 0.00 0.00 0.00 96 1003.6
20190419135719 52 296 5.0 14.0 0.00 0.00 0.00 96 1003.6
20190419135231 52 288 10.0 15.0 0.00 0.00 0.00 95 1003.5
20190419134723 52 296 6.0 18.0 0.00 0.00 0.00 95 1003.5
20190419134214 52 282 8.0 13.0 0.00 0.00 0.00 95 1003.4
20190419133726 52 238 6.0 11.0 0.00 0.00 0.00 95 1003.4
20190419133218 52 317 7.0 19.0 0.00 0.00 0.00 95 1003.4
20190419132729 52 293 9.0 19.0 0.00 0.00 0.00 94 1003.4
20190419132221 53 306 7.0 16.0 0.00 0.00 0.00 94 1003.4
20190419131717 53 306 6.0 15.0 0.00 0.00 0.00 94 1003.3
20190419131228 53 278 9.0 16.0 0.00 0.00 0.00 93 1003.3
20190419130719 53 327 10.0 16.0 0.00 0.00 0.00 94 1003.1
20190419130231 53 286 6.0 16.0 0.00 0.00 0.00 94 1003.0
20190419125722 53 307 8.0 16.0 0.00 0.00 0.00 95 1003.0
20190419125213 53 288 8.0 13.0 0.00 0.00 0.00 95 1003.0
20190419124727 53 327 8.0 13.0 0.00 0.00 0.00 95 1002.9
20190419124217 54 296 6.0 11.0 0.00 0.00 0.00 95 1002.8
20190419123713 54 281 6.0 13.0 0.00 0.00 0.00 95 1002.8
20190419123224 54 318 7.0 13.0 0.00 0.00 0.00 95 1002.8
20190419122715 54 287 5.0 12.0 0.00 0.00 0.00 95 1002.6
20190419122226 54 270 5.0 12.0 0.00 0.00 0.00 95 1002.6
20190419121718 54 298 6.0 14.0 0.00 0.00 0.00 95 1002.5
20190419121229 54 277 5.0 14.0 0.00 0.00 0.00 95 1002.6
20190419120721 54 338 5.0 14.0 0.00 0.00 0.00 94 1002.5
20190419120213 54 293 8.0 15.0 0.00 0.00 0.00 94 1002.6
20190419115724 54 311 10.0 15.0 0.00 0.00 0.00 94 1002.6
20190419115218 55 317 6.0 12.0 0.00 0.00 0.00 94 1002.5
20190419114728 55 261 6.0 19.0 0.00 0.00 0.00 94 1002.4
20190419114219 55 261 10.0 19.0 0.00 0.00 0.00 94 1002.2
20190419113712 55 238 7.0 15.0 0.00 0.00 0.00 94 1002.1
20190419113223 55 269 8.0 15.0 0.00 0.00 0.00 94 1002.0
20190419112715 56 277 6.0 16.0 0.00 0.00 0.00 94 1001.8
20190419112226 56 298 9.0 16.0 0.00 0.00 0.00 93 1001.8
20190419111717 57 279 10.0 15.0 0.00 0.00 0.00 94 1001.6
20190419111214 58 286 7.0 13.0 0.00 0.00 0.00 95 1001.6
20190419110725 58 281 4.0 10.0 0.00 0.00 0.00 95 1001.5
20190419110216 59 281 4.0 13.0 0.00 0.00 0.00 95 1001.5
20190419105727 59 350 4.0 14.0 0.00 0.00 0.00 95 1001.4
20190419105220 60 316 6.0 17.0 0.00 0.00 0.00 95 1001.4
20190419104731 60 286 11.0 17.0 0.00 0.00 0.00 95 1001.2
20190419104222 60 276 6.0 11.0 0.00 0.00 0.00 95 1001.2
20190419103713 60 286 3.0 9.0 0.00 0.00 0.00 95 1001.1
20190419103228 61 281 2.0 6.0 0.00 0.00 0.00 95 1001.0
20190419102719 61 269 1.0 6.0 0.00 0.00 0.00 95 1000.9
20190419102232 61 192 4.0 6.0 0.00 0.00 0.00 95 1000.9
20190419101723 61 247 2.0 4.0 0.00 0.00 0.00 95 1000.9
20190419101214 61 224 2.0 5.0 0.00 0.00 0.00 95 1000.9
20190419100726 61 217 2.0 6.0 0.00 0.00 0.00 95 1000.8
20190419100218 61 224 1.0 6.0 0.00 0.00 0.00 95 1000.8
20190419095730 61 229 3.0 9.0 0.00 0.00 0.00 95 1000.7
20190419095304 61 296 3.0 9.0 0.00 0.00 0.00 95 1000.6
20190419041734 66 207 5.0 14.0 0.00 0.00 0.00 96 1002.9
20190419041223 67 281 4.0 15.0 0.00 0.00 0.00 97 1002.8
20190419040732 67 227 7.0 16.0 0.00 0.00 0.00 97 1002.6
20190419040222 67 205 6.0 16.0 0.00 0.00 0.00 97 1002.1
20190419035731 66 209 5.0 14.0 0.00 0.00 0.00 97 1001.9
20190419035230 66 238 5.0 15.0 0.00 0.00 0.00 97 1002.3
20190419034724 66 163 4.0 9.0 0.00 0.00 0.00 97 1002.0
20190419034234 65 140 3.0 7.0 0.00 0.00 0.00 97 1002.1
20190419033723 65 188 4.0 7.0 0.00 0.00 0.00 97 1002.1
20190419033233 65 165 4.0 5.0 0.00 0.00 0.00 97 1002.1
20190419032722 65 152 1.0 5.0 0.00 0.00 0.00 97 1002.2
20190419032220 65 130 2.0 8.0 0.00 0.00 0.00 97 1002.2
20190419031729 64 190 2.0 8.0 0.00 0.00 0.00 97 1002.1
20190419031219 64 84 2.0 5.0 0.00 0.00 0.00 97 1002.0
20190419030729 64 130 3.0 6.0 0.00 0.00 0.00 97 1001.9
20190419030224 63 109 3.0 6.0 0.00 0.00 0.00 97 1002.0
20190419025732 63 115 2.0 7.0 0.00 0.00 0.00 97 1002.2
20190419025231 63 82 2.0 5.0 0.00 0.00 0.00 97 1002.6
20190419024721 63 114 3.0 6.0 0.00 0.00 0.00 97 1003.1
20190419024229 63 107 3.0 6.0 0.00 0.00 0.00 97 1003.4
20190419023720 63 79 2.0 6.0 0.00 0.00 0.00 97 1003.7
20190419023228 63 96 0.0 0.0 0.00 0.00 0.00 97 1003.9
20190419022719 63 84 0.0 0.0 0.00 0.00 0.00 97 1004.0
20190419022218 63 84 0.0 0.0 0.00 0.00 0.00 97 1004.0
20190419021728 63 84 0.0 0.0 0.00 0.00 0.00 97 1004.2
20190419021222 63 84 0.0 0.0 0.00 0.00 0.00 97 1004.5
20190419020730 63 84 0.0 0.0 0.00 0.00 0.00 97 1004.7
20190419020219 63 84 0.0 0.0 0.00 0.00 0.00 97 1004.8
20190419015729 63 105 0.0 0.0 0.00 0.00 0.00 97 1004.8
20190419015227 63 105 0.0 0.0 0.00 0.00 0.00 97 1005.3
20190419014716 63 105 0.0 4.0 0.00 0.00 0.00 97 1004.0
20190419014226 63 111 0.0 6.0 0.00 0.00 0.00 97 1004.6
20190419013716 63 79 1.0 7.0 0.00 0.00 0.00 96 1004.3
20190419013224 63 182 2.0 8.0 0.00 0.00 0.00 96 1004.5
20190419012718 63 95 3.0 8.0 0.00 0.00 0.00 96 1003.7
20190419012215 63 91 2.0 8.0 0.00 0.00 0.00 96 1004.5
20190419011725 63 68 2.0 6.0 0.00 0.00 0.00 96 1005.1
20190419011234 63 79 2.0 6.0 0.00 0.00 0.00 96 1005.0